Weather History for VTSB - October, 2013

Change the Weather History Date:

Thursday, October 3, 2013

  Actual Average Record
Temperature  
Mean Temperature 84 °F -  
Max Temperature 95 °F 88 °F - ()
Min Temperature 74 °F 73 °F - ()
Cooling Degree Days 20    
Growing Degree Days 34 (Base 50)    
Moisture  
Dew Point 76 °F    
Average Humidity 94    
Maximum Humidity 100    
Minimum Humidity 65    
Precipitation  
Precipitation 0.43 in 0.34 in - ()
Sea Level Pressure  
Sea Level Pressure 29.87 in    
Wind  
Wind Speed 2 mph ()    
Max Wind Speed 9 mph    
Max Gust Speed -    
Visibility 5.0 miles    
Events Rain , Thunderstorm    
T = Trace of Precipitation, MM = Missing Value Source: Averaged Metar Reports

Daily Weather History Graph

Daily Weather History Graph

Search for Another Location

Airport or City:

Trip Planner

Search our weather history database for the weather conditions in past years. The results will help you decide how hot, cold, wet, or windy it might be!

Date:

Astronomy

Oct. 03, 2013 Rise Set
Actual Time 6:11 AM ICT 6:13 PM ICT
Civil Twilight 5:50 AM ICT 6:34 PM ICT
Nautical Twilight 5:26 AM ICT 6:58 PM ICT
Astronomical Twilight 5:02 AM ICT 7:22 PM ICT
Moon 4:29 AM ICT 4:53 PM ICT
Length of Visible Light 12h 43m
Length of Day
12h 01m
Waning Crescent, 4% of the Moon is Illuminated
Oct 3
Waning Crescent
Oct 5
New
Oct 12
First Quarter
Oct 19
Full
Oct 27
Last Quarter

Hourly Weather History & Observations

Time (ICT) Temp. Heat Index Dew Point Humidity Pressure Visibility Wind Dir Wind Speed Gust Speed Precip Events Conditions
12:00 AM 75.2 °F - 75.2 °F 100% 29.89 in 3.7 mi Calm Calm - N/A   Overcast
1:00 AM 76 °F - 75 °F 95% 29.89 in 4 mi Calm Calm - -   Mist
1:00 AM 75.2 °F - 75.2 °F 100% 29.89 in 3.7 mi Calm Calm - N/A   Scattered Clouds
2:00 AM 75.2 °F - 75.2 °F 100% 29.86 in 3.7 mi Calm Calm - N/A   Scattered Clouds
3:00 AM 73.4 °F - 73.4 °F 100% 29.86 in 3.7 mi Calm Calm - N/A   Scattered Clouds
6:00 AM 73.4 °F - 73.4 °F 100% 29.86 in 3.1 mi South 3.5 mph - N/A   Mostly Cloudy
7:00 AM 75 °F - 74 °F 95% 29.87 in 4 mi Calm Calm - -   Mist
8:00 AM 77.0 °F - 77.0 °F 100% 29.89 in 4.3 mi South 3.5 mph - N/A   Scattered Clouds
9:00 AM 82.4 °F 92.4 °F 78.8 °F 89% 29.92 in 6.2 mi SW 6.9 mph - N/A   Scattered Clouds
10:00 AM 84.2 °F 94.1 °F 77.0 °F 79% 29.92 in 6.2 mi South 6.9 mph - N/A   Scattered Clouds
11:00 AM 86.0 °F 99.3 °F 78.8 °F 79% 29.92 in 6.2 mi South 8.1 mph - N/A   Mostly Cloudy
12:00 PM 86.0 °F 96.9 °F 77.0 °F 74% 29.89 in 6.2 mi SSW 6.9 mph - N/A   Overcast
1:00 PM 86 °F - 76 °F 65% 29.90 in 5 mi WSW 9.2 mph - - Rain , Thunderstorm Thunderstorms and Rain
1:00 PM 77.0 °F - 77.0 °F 100% 29.89 in 4.3 mi WNW 9.2 mph - N/A Rain Rain
2:00 PM 77.0 °F - 75.2 °F 94% 29.86 in 5.6 mi WNW 5.8 mph - N/A   Overcast
3:00 PM 77.0 °F - 77.0 °F 100% 29.83 in 6.2 mi WSW 2.3 mph - N/A   Overcast
4:00 PM 78.8 °F - 77.0 °F 94% 29.80 in 6.2 mi Calm Calm - N/A   Overcast
5:00 PM 77.0 °F - 77.0 °F 100% 29.80 in 6.2 mi NE 3.5 mph - N/A   Overcast
6:00 PM 77.0 °F - 77.0 °F 100% 29.83 in 6.2 mi East 3.5 mph - N/A   Overcast
7:00 PM 77 °F - 76 °F 98% 29.83 in 5 mi Calm Calm - -   Mist
7:00 PM 78.8 °F - 77.0 °F 94% 29.83 in 6.2 mi Calm Calm - N/A   Overcast
8:00 PM 75.2 °F - 75.2 °F 100% 29.86 in 5.0 mi Calm Calm - N/A   Overcast
9:00 PM 77.0 °F - 77.0 °F 100% 29.89 in 5.0 mi Calm Calm - N/A   Mostly Cloudy